Retour au catalogue

ONDOSAT-OWL-5

ActifMétéoVLEO
NORAD 62396·PAYLOAD·🇲🇳 Mongolia
Ce nom de satellite n'a pas encore été confirmé par des sources officielles.

Lancé Dec 21, 2024 depuis Vandenberg Space Force Base

Loading…

Prochains Passages (prochaines 24 heures)

TLE

FraisSource: Space-Track

Époque: Sep 13, 2026, 23:26 UTC

1 62396U 24247V   26256.97694171  .00064692  00000-0  73762-3 0  9995
2 62396  44.9893 102.9030 0007884 213.1537 146.8866 15.61389991 97310

Suivez ONDOSAT-OWL-5 en temps réel avec AllMySat

Download on the App Store